星链-36567(STARLINK-36567)

导读

STARLINK-36567是美国于2026年1月22日发射的星链卫星,隶属于SpaceX公司的星链星座项目。星链项目旨在构建全球卫星互联网星座,为全球提供高速低延迟的互联网接入服务,该卫星入轨后将进一步扩充星链星座规模,助力覆盖能力与服务性能提升。

基本信息
目录编号:
67552
目录名称:
STARLINK-36567
国际标识:
2026-014W
轨道中心:
EARTH
卫星名称:
星链-36567
卫星全名:
星链-36567(STARLINK-36567)
卫星状态:
在轨 (已飞行225 天)
发射日期:
2026-01-22 UTC
国别 :
美国 (US)
星等 :
--
轨道信息
数据来源 国际轨道数据
星历时间: 2026-09-03T13:19:19+0800
1天前
查看轨道信息
半长轴: 6843.693km
偏心率: 0.0001703
轨道倾角: 97.284°
近地点辐角 93.867°
升交点赤经 131.879°
平近点角 266.276°
近地点: 464.39km
远地点: 466.722km
周期: 93.906分钟
每日圈数: 15.334408
详细信息
固有亮度:
5
最大亮度:
2.5
卫星平台:
Starlink V1.0
覆盖范围:
全球
运营商:
太空探索技术公司
运营商所在国:
美国
制造商(研发单位):
太空探索技术公司
制造商所在国:
美国
使用方式:
暂无
卫星简介
Starlink 计划是 SpaceX 推出的全球卫星互联网项目,通过发射低轨道卫星,为全球尤其是偏远地区提供高速、低延迟的互联网服务。自 2019 年起,Starlink 已部署数千颗卫星,旨在缩小全球数字鸿沟,推动互联网普及。该项目还为军事、航空等行业提供通信支持,带来广泛经济效益。
2D轨道图
3D轨道图
轨道高度分析图
轨道倾角分析图
轨道综合分析图
查看轨道综合分析图
交会数据列表
事件ID 空间交会对象 最接近时刻(TCA) 交会距离 交会风险概率(CRP) 交会风险指数(CRI) 操作
CDM_260906-044105-503406-755221
2026-09-06T
04:41:47+0000
1.475 km
极远距离
7.190595E-6 低风险 0.52
CDM_260905-080106-434406-755221
2026-09-05T
08:01:50+0000
2.222 km
极远距离
2.250923E-6 低风险 0.42
CDM_260903-044404-844506-755221
2026-09-03T
04:44:30+0000
2.998 km
极远距离
1.002788E-6 低风险 0.35